Location: Juncalas
(43.0488°N, 0.0129°W)
Time: 01:51:28
(UTC+00:00)

Daily predictions for brighter satellites

Satellite Brightness Start Highest point End
(mag) Time Altitude Azimuth Time Altitude Azimuth Time Altitude Azimuth
Cosmos 2344 4.2 00:02:00 10° NNW 00:09:28 66° NNE 00:09:28 66° NNE
Cosmos 1980 Rocket 4.3 00:54:24 10° N 00:57:03 23° NNE 00:57:03 23° NNE
CZ-4C R/B 4.3 01:31:18 18° ENE 01:31:18 18° ENE 01:32:57 10° NE
Cosmos 1833 Rocket 4.4 01:31:15 28° N 01:31:15 28° N 01:33:58 10° NNE
Resurs 1-4 Rocket 4.1 01:23:43 10° NNE 01:26:11 24° NE 01:26:11 24° NE
ATLAS 2AS CENTAUR R/B 4.1 01:30:37 10° NW 01:33:35 28° NNW 01:33:35 28° NNW
Lacrosse 5 4.1 01:46:06 21° ENE 01:46:06 21° ENE 01:47:54 10° ENE
COSMOS 2406 4.4 01:55:55 38° ENE 01:55:55 38° ENE 01:59:43 10° NE
ALOS 4.4 01:57:28 10° NE 01:59:59 23° ENE 01:59:59 23° ENE
Cosmos 2082 Rocket 3.1 02:04:34 44° NE 02:04:34 44° NE 02:08:21 10° NNE
CZ-2D R/B 3.1 02:03:00 10° NNE 02:06:49 46° NNE 02:06:49 46° NNE
BREEZE-M TANK 3.9 02:14:38 64° ESE 02:14:38 64° ESE 02:26:16 10° ENE
SL-16 R/B 3.9 02:14:08 10° N 02:19:08 31° NE 02:24:06 10° ESE
CENTAUR R/B 4.4 02:22:39 14° SE 02:24:24 16° ESE 02:27:59 10° ENE
ADEOS II 2.7 02:19:28 10° NNE 02:23:31 52° NE 02:23:31 52° NE
COSMOS 2455 4.3 02:27:28 25° SE 02:28:43 27° ESE 02:33:40 10° NE
USA 281 3.4 02:30:54 60° NW 02:30:54 60° NW 02:36:15 10° NNW
IDEFIX/ARIANE 42P 4.0 02:31:39 10° N 02:34:37 29° NNW 02:34:37 29° NNW
Cosmos 1980 Rocket 4.4 02:38:08 10° NW 02:38:44 13° NW 02:38:44 13° NW
Cosmos 2181 Rocket 4.0 02:47:13 68° SSE 02:48:05 82° E 02:54:31 10° N
CZ-2C R/B 4.3 02:48:34 10° NE 02:52:32 24° E 02:55:14 15° SE
SL-8 Rocket 3.9 02:46:37 10° NNW 02:52:26 70° WNW 02:52:26 70° WNW
AQUA 4.3 02:49:00 10° N 02:52:43 55° N 02:52:43 55° N
Timation 1 Rocket 4.5 02:53:14 58° SSE 02:54:06 66° ESE 03:00:04 10° NNE
Cosmos 864 Rocket 4.4 02:50:24 10° N 02:56:42 77° W 02:57:19 70° SW
Cosmos 1869 4.4 03:01:45 40° NNE 03:01:45 40° NNE 03:04:21 10° NNE
SL-16 R/B 2.4 03:01:05 56° S 03:02:28 77° WSW 03:08:45 10° NNW
Cosmos 1455 Rocket 3.9 03:07:43 40° NNW 03:07:43 40° NNW 03:10:37 10° N
Resurs 1-4 Rocket 3.3 03:03:38 10° N 03:07:14 29° NW 03:07:14 29° NW
UNK 3.7 03:11:03 65° SE 03:11:44 81° ENE 03:16:23 10° NNW
NOAA 11 4.3 03:07:45 10° NNE 03:13:16 72° ESE 03:15:12 41° S
Cosmos 2237 4.1 03:07:33 10° NNW 03:13:16 88° WSW 03:18:57 10° SSE
Cosmos 2251 Rocket 3.9 03:14:47 39° SSE 03:16:33 60° ESE 03:21:45 10° NNE
CZ-4C R/B 2.9 03:16:21 31° NW 03:16:38 31° NW 03:21:39 10° NNE
YAOGAN 6 4.1 03:16:19 10° NE 03:19:04 27° E 03:19:22 26° ESE
Cosmos 2366 rocket 4.2 03:14:54 10° NNW 03:20:58 49° W 03:21:26 48° WSW
Lacrosse 5 2.6 03:25:18 36° NW 03:26:07 39° NNW 03:30:53 10° NE
SeaSat 1 2.5 03:23:50 10° SE 03:28:44 76° ENE 03:33:39 10° NNW
Cosmos 2228 3.2 03:28:21 40° SSE 03:29:40 65° E 03:33:52 10° NNE
Cosmos 1140 Rocket 3.6 03:30:24 51° W 03:30:57 53° WNW 03:36:03 10° NNE
Cosmos 2360 Rocket 2.9 03:27:02 10° NNW 03:32:34 54° ENE 03:38:03 10° SE
CZ-3 R/B 4.3 03:22:16 22° SW 03:34:08 33° S 03:42:58 10° ESE
DMSP B5D2-2 4.1 03:30:36 10° SSE 03:35:48 81° ENE 03:41:03 10° NNW
Cosmos 2218 Rocket 4.4 03:30:22 10° NNW 03:36:09 39° W 03:36:48 38° WSW
ALOS 3.1 03:34:26 10° N 03:38:14 32° WNW 03:38:14 32° WNW
COSMOS 2406 4.3 03:37:58 26° WNW 03:38:47 27° NW 03:43:34 10° N
H-2A R/B 3.4 03:34:57 10° NNE 03:39:59 40° E 03:45:02 10° SSE
Cosmos 2322 Rocket 2.2 03:36:47 10° NNW 03:42:30 81° ENE 03:48:09 10° SSE
ATLAS CENTAUR R/B 4.4 03:44:02 10° N 03:46:07 13° NE 03:48:13 10° ENE
Cosmos 2082 Rocket 3.8 03:46:24 18° WNW 03:47:28 19° NW 03:51:20 10° N
CZ-2D R/B 3.8 03:44:27 10° NNW 03:47:51 17° WNW 03:48:06 17° WNW
Cosmos 1602 Rocket 4.0 03:43:25 10° N 03:47:52 63° E 03:52:15 10° SSE
DELTA 2 R/B (1) 3.8 03:48:59 35° SW 03:51:02 54° SSE 03:56:26 10° E
Cosmos 1626 Rocket 3.4 03:46:52 10° NNW 03:51:16 67° W 03:54:27 18° S
Cosmos 2219 Rocket 3.5 03:47:07 10° NNW 03:52:28 42° ENE 03:57:46 10° SE
Cosmos 2333 Rocket 2.3 03:48:51 10° NNW 03:54:37 79° ENE 04:00:18 10° SSE
Tiangong -0.3 03:56:20 19° SSE 03:56:20 19° SSE 03:57:42 10° SE
Cosmos 2278 4.2 03:56:50 10° NW 04:01:56 36° WSW 04:07:00 10° S
NOSS 3-2 (A) 3.8 03:57:54 14° S 04:02:06 51° ESE 04:07:46 10° NE
BREEZE-M DEB (TANK) 3.4 04:01:53 18° NW 04:02:48 21° N 04:04:40 10° NE
SL-16 R/B 2.5 03:58:02 10° NW 04:03:21 43° WSW 04:08:38 10° S
Cosmos 407 Rocket 3.9 04:01:20 30° WSW 04:03:26 44° WNW 04:08:30 10° N
Cosmos 468 Rocket 4.4 03:58:18 10° NNW 04:03:31 67° ENE 04:08:42 10° SSE
Envisat 3.6 03:58:56 10° N 04:03:36 38° WNW 04:05:29 28° WSW
ADEOS II 3.7 04:00:31 10° NNW 04:03:43 17° WNW 04:04:23 16° WNW
BREEZE-M (TANK) 3.7 03:56:21 10° WNW 04:06:29 63° NNE 04:09:42 10° E
Cosmos 1934 Rocket 4.0 04:01:42 10° N 04:08:01 87° W 04:14:23 10° S
Cosmos 1818 3.5 04:05:46 10° NW 04:11:14 71° WSW 04:16:37 10° SSE
Cosmos 540 Rocket 3.4 04:08:32 10° NNW 04:13:40 86° WSW 04:18:47 10° SSE
CENTAUR R/B 2.4 04:09:49 21° SW 04:13:45 80° NW 04:20:40 10° NE
COSMOS 2455 3.1 04:10:37 23° WSW 04:14:17 53° NW 04:20:12 10° NNE
Thor Agena Rocket 3.8 04:10:19 10° NNE 04:15:27 73° ESE 04:20:37 10° S
Cosmos 1758 Rocket 3.7 04:13:45 10° NNW 04:18:00 48° W 04:22:11 10° SSW
IRS-1D 3.6 04:13:43 10° N 04:19:01 76° WNW 04:24:20 10° SSW
Cosmos 1763 Rocket 3.5 04:17:32 10° NNW 04:22:30 53° WSW 04:27:32 10° S
Cosmos 1666 3.0 04:22:18 10° NNW 04:25:16 31° W 04:27:11 17° SW
Cosmos 1500 3.9 04:23:24 10° NW 04:26:08 24° W 04:26:37 23° WSW
Cosmos 2333 4.1 04:20:34 10° NNW 04:26:16 80° WSW 04:31:53 10° SSE
Cosmos 1190 Rocket 4.2 04:23:03 16° SW 04:27:05 52° WNW 04:32:09 10° N
SL-8 R/B 4.2 04:25:02 17° W 04:28:29 52° NNW 04:33:07 10° ENE
Cosmos 1862 3.9 04:25:14 10° NNW 04:28:35 31° W 04:31:55 10° SSW
CZ-2C R/B 2.9 04:26:15 10° N 04:30:45 37° WNW 04:34:31 13° SW
USA 215 3.3 04:26:05 10° SE 04:32:39 89° SSW 04:39:14 10° NW
Cosmos 1900 4.4 04:28:42 15° SW 04:32:49 61° NW 04:37:45 10° NNE
Atlas Centaur 2 4.2 04:28:40 10° SSW 04:32:51 20° SSE 04:37:37 10° ESE
JB-3 4.4 04:31:51 10° SSE 04:35:40 78° ENE 04:39:34 10° N
COSMOS 2428 4.0 04:32:29 10° NNW 04:37:59 44° ENE 04:43:25 10° SE
Cosmos 1602 3.4 04:35:12 10° NNW 04:38:41 63° W 04:42:09 10° S
Cosmos 1726 Rocket 3.5 04:36:12 10° S 04:40:31 88° W 04:44:52 10° N
Cosmos 676 Rocket 4.0 04:37:43 10° SSW 04:42:49 62° WNW 04:47:58 10° NNE
Cosmos 1484 Rocket 2.7 04:40:41 10° NNE 04:44:25 86° ESE 04:48:09 10° SSW
CBERS-1 4.3 04:41:27 10° NNE 04:46:33 73° ESE 04:51:38 10° S
SL-16 R/B 4.2 04:46:11 11° W 04:47:01 11° W 04:48:52 10° WNW
YAOGAN 6 4.2 04:48:57 10° NNW 04:50:45 14° WNW 04:52:07 12° W
Cosmos 1605 Rocket 4.0 04:45:24 10° NNW 04:51:39 68° W 04:57:45 10° S
Cosmos 2151 2.8 04:47:45 10° N 04:51:54 79° W 04:56:01 10° S
Cosmos 1939 Rocket 2.8 04:48:45 10° N 04:52:43 71° WNW 04:56:40 10° SSW
H-2A R/B 3.9 04:55:21 10° NNE 04:58:06 35° E 05:00:50 10° SSE
COSMO-SKYMED 1 3.3 04:54:27 10° SSE 04:58:42 58° ENE 05:02:59 10° N
Cosmos 1825 Rocket 3.8 04:54:57 10° NNW 04:59:13 46° W 05:03:25 10° SSW
Cosmos 1606 Rocket 4.1 04:58:53 10° SW 05:02:53 36° WNW 05:06:56 10° N
Cosmos 1076 Rocket 3.6 04:59:57 10° N 05:04:12 83° E 05:08:27 10° S
ATLAS 5 CENTAUR R/B 0.9 05:01:53 10° SSW 05:05:05 82° ESE 05:08:33 10° NE
SME Rocket 2.9 05:01:54 10° N 05:05:40 59° WNW 05:09:28 10° SSW
Cosmos 1515 4.2 05:03:04 10° S 05:06:22 56° E 05:09:42 10° NNE
SeaSat 1 4.0 05:03:57 10° SW 05:06:37 15° WSW 05:09:19 10° WNW
GP-B 3.1 05:02:45 10° S 05:07:07 66° W 05:11:30 10° N
CZ-4C R/B 4.4 05:04:54 10° NW 05:07:09 12° NNW 05:09:35 10° NNE
Cosmos 968 Rocket 3.9 05:05:10 10° S 05:10:19 68° ESE 05:15:28 10° NNE
Lacrosse 5 3.9 05:06:54 10° NW 05:10:20 18° N 05:13:46 10° NNE
FengYun 1-2 T 4.4 05:05:11 10° NNE 05:10:43 85° ESE 05:16:12 10° SSW
